5NBSK FKKD-FOOG

Flight info

Callsign 5NBSK
Flight time N/A
Altitude 8000
Route GASUB DCT EMTES G857 TEMKI
Aircraft A139/L-SDG/C

Departure

Time 2026-04-18 01:00
Airport Douala International Airport (FKKD)

Arrival

Time N/A
Airport Port Gentil International Airport (FOOG)
Time Latitude Longitude Altitude Speed Heading
2026-04-18 00:47 4.01041 9.71967 39 ft 0 kts 250°
2026-04-18 00:55 4.01040 9.71966 39 ft 0 kts 225°
2026-04-18 00:55 4.01033 9.71956 39 ft 4 kts 244°
2026-04-18 00:55 4.01035 9.71917 40 ft 5 kts 283°
2026-04-18 00:56 4.01025 9.71897 41 ft 3 kts 255°
2026-04-18 00:56 4.01037 9.71870 41 ft 4 kts 298°
2026-04-18 00:56 4.01050 9.71835 42 ft 5 kts 284°
2026-04-18 00:56 4.01042 9.71795 42 ft 7 kts 233°
2026-04-18 00:57 4.00994 9.71765 44 ft 8 kts 209°
2026-04-18 00:57 4.00935 9.71736 44 ft 9 kts 207°
2026-04-18 00:57 4.00871 9.71709 45 ft 10 kts 204°
2026-04-18 00:57 4.00805 9.71680 45 ft 9 kts 205°
2026-04-18 00:58 4.00751 9.71662 44 ft 7 kts 172°
2026-04-18 00:58 4.00729 9.71684 43 ft 2 kts 66°
2026-04-18 00:58 4.00732 9.71703 43 ft 1 kts 113°
2026-04-18 00:59 4.00731 9.71703 48 ft 1 kts 115°
2026-04-18 00:59 4.00702 9.71756 49 ft 24 kts 120°
2026-04-18 01:00 4.00554 9.72026 213 ft 64 kts 111°
2026-04-18 01:00 4.00325 9.72467 582 ft 77 kts 114°
2026-04-18 01:00 3.99948 9.72861 905 ft 83 kts 140°
2026-04-18 01:00 3.99375 9.72928 1162 ft 86 kts 181°
2026-04-18 01:01 3.98821 9.72742 1450 ft 82 kts 179°
2026-04-18 01:01 3.98228 9.72973 1576 ft 105 kts 134°
2026-04-18 01:01 3.97909 9.73699 1769 ft 123 kts 87°
2026-04-18 01:01 3.97934 9.74608 1974 ft 136 kts 79°
2026-04-18 01:02 3.97990 9.75604 2152 ft 149 kts 79°
2026-04-18 01:02 3.97873 9.76644 2349 ft 153 kts 94°
2026-04-18 01:02 3.97554 9.77656 2535 ft 151 kts 103°
2026-04-18 01:02 3.97163 9.78628 2685 ft 150 kts 111°
2026-04-18 01:03 3.96461 9.79390 2786 ft 152 kts 152°
2026-04-18 01:03 3.95439 9.79509 2968 ft 146 kts 186°
2026-04-18 01:03 3.94453 9.79250 3110 ft 145 kts 199°
2026-04-18 01:03 3.93505 9.78876 3253 ft 146 kts 204°
2026-04-18 01:04 3.92567 9.78450 3419 ft 147 kts 205°
2026-04-18 01:04 3.91641 9.78004 3583 ft 148 kts 206°
2026-04-18 01:04 3.90706 9.77544 3749 ft 149 kts 206°
2026-04-18 01:04 3.89771 9.77078 3912 ft 150 kts 206°
2026-04-18 01:05 3.88837 9.76610 4073 ft 150 kts 206°
2026-04-18 01:05 3.87891 9.76136 4232 ft 151 kts 207°
2026-04-18 01:05 3.86950 9.75662 4403 ft 151 kts 206°
2026-04-18 01:05 3.85993 9.75182 4559 ft 153 kts 206°
2026-04-18 01:06 3.85029 9.74697 4725 ft 154 kts 206°
2026-04-18 01:06 3.83994 9.74417 4899 ft 155 kts 181°
2026-04-18 01:06 3.82909 9.74425 5073 ft 155 kts 176°
2026-04-18 01:06 3.81806 9.74459 5233 ft 157 kts 175°
2026-04-18 01:07 3.80707 9.74497 5408 ft 157 kts 175°
2026-04-18 01:07 3.79605 9.74537 5575 ft 157 kts 175°
2026-04-18 01:07 3.78505 9.74578 5733 ft 158 kts 175°
2026-04-18 01:07 3.77401 9.74620 5905 ft 157 kts 175°
2026-04-18 01:08 3.76291 9.74660 6057 ft 159 kts 175°
2026-04-18 01:08 3.75172 9.74702 6233 ft 159 kts 174°
2026-04-18 01:08 3.74049 9.74743 6398 ft 159 kts 174°
2026-04-18 01:08 3.72929 9.74783 6565 ft 160 kts 174°
2026-04-18 01:09 3.71813 9.74825 6731 ft 159 kts 173°
2026-04-18 01:09 3.71065 9.74852 6838 ft 160 kts 173°
2026-04-18 01:09 3.69574 9.74908 7061 ft 161 kts 173°
2026-04-18 01:09 3.68446 9.74949 7227 ft 161 kts 173°
2026-04-18 01:10 3.67320 9.74991 7381 ft 161 kts 173°
2026-04-18 01:10 3.66175 9.75033 7542 ft 162 kts 172°
2026-04-18 01:10 3.65046 9.75074 7710 ft 162 kts 172°
2026-04-18 01:10 3.63903 9.75115 7836 ft 162 kts 171°
2026-04-18 01:11 3.62767 9.75158 7854 ft 163 kts 169°
2026-04-18 01:11 3.61616 9.75203 7833 ft 164 kts 169°
2026-04-18 01:11 3.60469 9.75248 7822 ft 163 kts 169°
2026-04-18 01:11 3.59314 9.75292 7809 ft 163 kts 169°
2026-04-18 01:12 3.58177 9.75332 7802 ft 163 kts 169°
2026-04-18 01:12 3.57029 9.75376 7792 ft 163 kts 169°
2026-04-18 01:12 3.55889 9.75418 7792 ft 163 kts 169°
2026-04-18 01:12 3.54751 9.75461 7797 ft 163 kts 169°
2026-04-18 01:13 3.53600 9.75502 7805 ft 162 kts 169°
2026-04-18 01:13 3.52466 9.75543 7806 ft 162 kts 169°
2026-04-18 01:13 3.51313 9.75587 7810 ft 162 kts 169°
2026-04-18 01:13 3.50189 9.75628 7811 ft 163 kts 169°
2026-04-18 01:14 3.49030 9.75670 7812 ft 163 kts 169°
2026-04-18 01:14 3.47887 9.75712 7812 ft 163 kts 169°
2026-04-18 01:14 3.46742 9.75754 7820 ft 162 kts 169°
2026-04-18 01:14 3.45605 9.75796 7819 ft 162 kts 169°
2026-04-18 01:15 3.44461 9.75838 7812 ft 163 kts 169°
2026-04-18 01:15 3.43320 9.75880 7811 ft 163 kts 169°
2026-04-18 01:15 3.42185 9.75922 7812 ft 163 kts 169°
2026-04-18 01:15 3.41041 9.75965 7816 ft 163 kts 169°
2026-04-18 01:16 3.39896 9.76007 7814 ft 163 kts 169°
2026-04-18 01:16 3.38755 9.76049 7810 ft 163 kts 169°
2026-04-18 01:16 3.37618 9.76091 7809 ft 163 kts 169°
2026-04-18 01:16 3.36468 9.76135 7799 ft 163 kts 169°
2026-04-18 01:17 3.35334 9.76175 7798 ft 162 kts 169°
2026-04-18 01:17 3.34194 9.76217 7796 ft 162 kts 169°
2026-04-18 01:17 3.33424 9.76245 7793 ft 163 kts 169°
2026-04-18 01:17 3.31910 9.76302 7797 ft 163 kts 169°
2026-04-18 01:18 3.30762 9.76344 7797 ft 163 kts 169°
2026-04-18 01:18 3.29629 9.76387 7798 ft 163 kts 169°
2026-04-18 01:18 3.28477 9.76430 7801 ft 163 kts 169°
2026-04-18 01:18 3.27343 9.76470 7798 ft 163 kts 169°
2026-04-18 01:19 3.26194 9.76514 7804 ft 163 kts 169°
2026-04-18 01:19 3.25047 9.76556 7800 ft 163 kts 169°
2026-04-18 01:19 3.23911 9.76598 7803 ft 162 kts 169°
2026-04-18 01:19 3.22776 9.76639 7799 ft 162 kts 169°
2026-04-18 01:20 3.21631 9.76682 7801 ft 162 kts 169°
2026-04-18 01:20 3.20480 9.76723 7796 ft 163 kts 169°
2026-04-18 01:20 3.19347 9.76766 7799 ft 163 kts 169°
2026-04-18 01:20 3.18209 9.76808 7808 ft 162 kts 169°
2026-04-18 01:21 3.17062 9.76850 7808 ft 163 kts 169°
2026-04-18 01:21 3.15925 9.76891 7806 ft 163 kts 169°
2026-04-18 01:21 3.14781 9.76934 7803 ft 163 kts 169°
2026-04-18 01:21 3.13626 9.76977 7799 ft 163 kts 169°
2026-04-18 01:22 3.12491 9.77020 7799 ft 163 kts 169°
2026-04-18 01:22 3.11334 9.77062 7797 ft 163 kts 169°
2026-04-18 01:22 3.10197 9.77104 7806 ft 162 kts 169°
2026-04-18 01:22 3.09051 9.77146 7803 ft 162 kts 169°
2026-04-18 01:23 3.07916 9.77181 7802 ft 162 kts 170°
2026-04-18 01:23 3.06775 9.77206 7804 ft 162 kts 170°
2026-04-18 01:23 3.05625 9.77232 7798 ft 162 kts 170°
2026-04-18 01:23 3.04479 9.77260 7791 ft 163 kts 170°
2026-04-18 01:24 3.03342 9.77285 7797 ft 163 kts 170°
2026-04-18 01:24 3.02182 9.77309 7797 ft 163 kts 170°
2026-04-18 01:24 3.01042 9.77336 7804 ft 163 kts 170°
2026-04-18 01:24 2.99890 9.77361 7806 ft 162 kts 170°
2026-04-18 01:25 2.98757 9.77387 7806 ft 162 kts 170°
2026-04-18 01:25 2.97613 9.77413 7803 ft 163 kts 170°
2026-04-18 01:25 2.96476 9.77438 7803 ft 163 kts 170°
2026-04-18 01:25 2.95317 9.77464 7812 ft 163 kts 170°
2026-04-18 01:26 2.94172 9.77490 7811 ft 163 kts 170°
2026-04-18 01:26 2.93020 9.77516 7818 ft 163 kts 170°
2026-04-18 01:26 2.91873 9.77541 7816 ft 163 kts 170°
2026-04-18 01:26 2.90741 9.77567 7821 ft 163 kts 170°
2026-04-18 01:27 2.89594 9.77593 7822 ft 163 kts 170°
2026-04-18 01:27 2.88443 9.77618 7813 ft 163 kts 170°
2026-04-18 01:27 2.87309 9.77643 7816 ft 163 kts 170°
2026-04-18 01:27 2.86158 9.77669 7810 ft 163 kts 170°
2026-04-18 01:28 2.85013 9.77695 7808 ft 163 kts 170°
2026-04-18 01:28 2.83878 9.77722 7802 ft 163 kts 170°
2026-04-18 01:28 2.82740 9.77748 7793 ft 163 kts 170°
2026-04-18 01:28 2.81586 9.77775 7799 ft 163 kts 171°
2026-04-18 01:29 2.80440 9.77800 7797 ft 163 kts 171°
2026-04-18 01:29 2.79297 9.77825 7805 ft 163 kts 171°
2026-04-18 01:29 2.78157 9.77850 7807 ft 163 kts 170°
2026-04-18 01:29 2.77018 9.77875 7813 ft 163 kts 170°
2026-04-18 01:30 2.75862 9.77902 7810 ft 163 kts 170°
2026-04-18 01:30 2.74720 9.77928 7809 ft 162 kts 170°
2026-04-18 01:30 2.73576 9.77952 7801 ft 163 kts 170°
2026-04-18 01:30 2.72430 9.77977 7799 ft 163 kts 170°
2026-04-18 01:31 2.71283 9.78004 7800 ft 164 kts 170°
2026-04-18 01:31 2.70143 9.78030 7814 ft 163 kts 170°
2026-04-18 01:31 2.68987 9.78056 7809 ft 164 kts 170°
2026-04-18 01:31 2.67837 9.78081 7808 ft 164 kts 170°
2026-04-18 01:32 2.66693 9.78108 7813 ft 163 kts 171°
2026-04-18 01:32 2.65547 9.78134 7811 ft 163 kts 170°
2026-04-18 01:32 2.64403 9.78158 7812 ft 163 kts 171°
2026-04-18 01:32 2.63262 9.78184 7812 ft 163 kts 170°
2026-04-18 01:33 2.62115 9.78209 7808 ft 163 kts 170°
2026-04-18 01:33 2.60981 9.78234 7808 ft 163 kts 170°
2026-04-18 01:33 2.59839 9.78272 7804 ft 163 kts 169°
2026-04-18 01:33 2.58703 9.78314 7802 ft 163 kts 169°
2026-04-18 01:34 2.57554 9.78355 7802 ft 163 kts 169°
2026-04-18 01:34 2.56420 9.78399 7805 ft 163 kts 169°
2026-04-18 01:34 2.55277 9.78442 7806 ft 163 kts 169°
2026-04-18 01:34 2.54146 9.78484 7808 ft 163 kts 169°
2026-04-18 01:35 2.53000 9.78528 7810 ft 163 kts 169°
2026-04-18 01:35 2.51859 9.78569 7806 ft 163 kts 169°
2026-04-18 01:35 2.50724 9.78613 7808 ft 163 kts 169°
2026-04-18 01:35 2.49578 9.78655 7806 ft 163 kts 169°
2026-04-18 01:36 2.48427 9.78699 7805 ft 163 kts 169°
2026-04-18 01:36 2.47292 9.78741 7805 ft 163 kts 169°
2026-04-18 01:36 2.46529 9.78769 7812 ft 163 kts 169°
2026-04-18 01:36 2.44998 9.78827 7814 ft 163 kts 169°
2026-04-18 01:37 2.43872 9.78869 7812 ft 163 kts 169°
2026-04-18 01:37 2.42723 9.78914 7819 ft 163 kts 169°
2026-04-18 01:37 2.41576 9.78956 7816 ft 163 kts 169°
2026-04-18 01:37 2.40449 9.79000 7818 ft 163 kts 169°
2026-04-18 01:38 2.39289 9.79043 7808 ft 163 kts 169°
2026-04-18 01:38 2.38142 9.79087 7811 ft 163 kts 170°
2026-04-18 01:38 2.37371 9.79115 7812 ft 163 kts 169°
2026-04-18 01:38 2.35828 9.79173 7809 ft 164 kts 169°
2026-04-18 01:39 2.34682 9.79216 7810 ft 164 kts 169°
2026-04-18 01:39 2.33521 9.79260 7817 ft 163 kts 169°
2026-04-18 01:39 2.32375 9.79302 7814 ft 164 kts 169°
2026-04-18 01:39 2.31213 9.79346 7818 ft 164 kts 169°
2026-04-18 01:40 2.30051 9.79389 7824 ft 163 kts 169°
2026-04-18 01:40 2.28908 9.79433 7812 ft 163 kts 169°
2026-04-18 01:40 2.27767 9.79477 7815 ft 163 kts 169°
2026-04-18 01:40 2.26613 9.79520 7814 ft 163 kts 169°
2026-04-18 01:41 2.25451 9.79565 7809 ft 163 kts 169°
2026-04-18 01:41 2.24295 9.79608 7815 ft 163 kts 170°
2026-04-18 01:41 2.23154 9.79650 7814 ft 163 kts 169°
2026-04-18 01:41 2.22001 9.79693 7814 ft 163 kts 169°
2026-04-18 01:42 2.20867 9.79735 7812 ft 163 kts 169°
2026-04-18 01:42 2.19716 9.79778 7816 ft 163 kts 169°
2026-04-18 01:42 2.18575 9.79821 7815 ft 163 kts 169°
2026-04-18 01:42 2.17420 9.79866 7815 ft 163 kts 169°
2026-04-18 01:43 2.16276 9.79908 7806 ft 163 kts 169°
2026-04-18 01:43 2.15127 9.79952 7803 ft 163 kts 169°
2026-04-18 01:43 2.13982 9.79996 7810 ft 163 kts 169°
2026-04-18 01:43 2.12845 9.80039 7824 ft 163 kts 169°
2026-04-18 01:44 2.11686 9.80082 7832 ft 163 kts 170°
2026-04-18 01:44 2.10552 9.80124 7824 ft 163 kts 169°
2026-04-18 01:44 2.09410 9.80168 7823 ft 163 kts 169°
2026-04-18 01:44 2.08266 9.80210 7821 ft 164 kts 169°
2026-04-18 01:45 2.07104 9.80254 7818 ft 164 kts 169°
2026-04-18 01:45 2.05967 9.80296 7823 ft 163 kts 169°
2026-04-18 01:45 2.04816 9.80341 7817 ft 163 kts 169°
2026-04-18 01:45 2.03670 9.80383 7817 ft 163 kts 169°
2026-04-18 01:46 2.02512 9.80426 7821 ft 163 kts 169°
2026-04-18 01:46 2.01373 9.80469 7833 ft 163 kts 169°
2026-04-18 01:46 2.00223 9.80513 7828 ft 163 kts 169°
2026-04-18 01:46 1.99073 9.80557 7829 ft 163 kts 169°
2026-04-18 01:47 1.97926 9.80601 7830 ft 163 kts 170°
2026-04-18 01:47 1.96785 9.80644 7829 ft 163 kts 169°
2026-04-18 01:47 1.95628 9.80687 7833 ft 163 kts 169°
2026-04-18 01:47 1.94473 9.80730 7838 ft 163 kts 170°
2026-04-18 01:48 1.93329 9.80773 7844 ft 163 kts 169°
2026-04-18 01:48 1.92180 9.80814 7843 ft 163 kts 169°
2026-04-18 01:48 1.91032 9.80859 7848 ft 163 kts 169°
2026-04-18 01:48 1.89882 9.80754 7831 ft 168 kts 188°
2026-04-18 01:49 1.88759 9.80423 7867 ft 167 kts 189°
2026-04-18 01:49 1.87625 9.80084 7854 ft 167 kts 189°
2026-04-18 01:49 1.86497 9.79745 7850 ft 168 kts 189°
2026-04-18 01:49 1.85372 9.79403 7849 ft 168 kts 189°
2026-04-18 01:50 1.84246 9.79062 7854 ft 168 kts 190°
2026-04-18 01:50 1.83501 9.78836 7851 ft 168 kts 190°
2026-04-18 01:50 1.81987 9.78376 7866 ft 168 kts 190°
2026-04-18 01:50 1.80860 9.78032 7871 ft 168 kts 189°
2026-04-18 01:51 1.79735 9.77690 7872 ft 168 kts 190°
2026-04-18 01:51 1.78617 9.77350 7872 ft 168 kts 190°
2026-04-18 01:51 1.77483 9.77005 7874 ft 168 kts 190°
2026-04-18 01:51 1.76357 9.76661 7871 ft 169 kts 190°
2026-04-18 01:52 1.75213 9.76313 7881 ft 169 kts 190°
2026-04-18 01:52 1.74088 9.75970 7887 ft 169 kts 190°
2026-04-18 01:52 1.72960 9.75625 7891 ft 168 kts 189°
2026-04-18 01:52 1.71826 9.75279 7883 ft 168 kts 190°
2026-04-18 01:53 1.70698 9.74936 7879 ft 168 kts 190°
2026-04-18 01:53 1.69561 9.74589 7876 ft 168 kts 190°
2026-04-18 01:53 1.68445 9.74249 7872 ft 168 kts 190°
2026-04-18 01:54 1.66181 9.73560 7875 ft 168 kts 190°
2026-04-18 01:54 1.65043 9.73214 7872 ft 168 kts 190°
2026-04-18 01:54 1.63928 9.72874 7871 ft 168 kts 190°
2026-04-18 01:54 1.62796 9.72530 7868 ft 168 kts 190°
2026-04-18 01:55 1.61663 9.72183 7865 ft 169 kts 190°
2026-04-18 01:55 1.60524 9.71836 7867 ft 169 kts 190°
2026-04-18 01:55 1.59393 9.71491 7863 ft 169 kts 190°
2026-04-18 01:55 1.58252 9.71148 7866 ft 168 kts 188°
2026-04-18 01:56 1.57130 9.70832 7857 ft 168 kts 188°
2026-04-18 01:56 1.55982 9.70509 7850 ft 168 kts 188°
2026-04-18 01:56 1.54854 9.70192 7847 ft 168 kts 188°
2026-04-18 01:56 1.53709 9.69871 7855 ft 168 kts 188°
2026-04-18 01:57 1.52583 9.69555 7852 ft 167 kts 189°
2026-04-18 01:57 1.51450 9.69236 7845 ft 168 kts 189°
2026-04-18 01:57 1.50305 9.68915 7846 ft 168 kts 189°
2026-04-18 01:57 1.49180 9.68600 7849 ft 168 kts 189°
2026-04-18 01:58 1.48037 9.68277 7840 ft 168 kts 189°
2026-04-18 01:58 1.46893 9.67956 7845 ft 168 kts 188°
2026-04-18 01:58 1.45761 9.67638 7848 ft 168 kts 189°
2026-04-18 01:58 1.45000 9.67425 7849 ft 168 kts 189°
2026-04-18 01:59 1.43866 9.67106 7845 ft 168 kts 189°
2026-04-18 01:59 1.42733 9.66788 7842 ft 169 kts 188°
2026-04-18 01:59 1.41588 9.66466 7849 ft 168 kts 188°
2026-04-18 01:59 1.40062 9.66038 7859 ft 168 kts 188°
2026-04-18 02:00 1.39303 9.65824 7851 ft 168 kts 188°
2026-04-18 02:00 1.37778 9.65398 7850 ft 168 kts 189°
2026-04-18 02:00 1.37026 9.65187 7851 ft 168 kts 189°
2026-04-18 02:00 1.35895 9.64869 7838 ft 169 kts 189°
2026-04-18 02:01 1.34375 9.64443 7849 ft 168 kts 189°
2026-04-18 02:01 1.33613 9.64228 7850 ft 169 kts 189°
2026-04-18 02:01 1.32469 9.63907 7863 ft 168 kts 188°
2026-04-18 02:01 1.30963 9.63484 7861 ft 169 kts 188°
2026-04-18 02:02 1.29820 9.63163 7871 ft 168 kts 188°
2026-04-18 02:02 1.28680 9.62843 7865 ft 168 kts 188°
2026-04-18 02:02 1.27547 9.62524 7865 ft 168 kts 188°
2026-04-18 02:02 1.26403 9.62204 7870 ft 168 kts 188°
2026-04-18 02:03 1.25263 9.61885 7865 ft 168 kts 188°
2026-04-18 02:03 1.24131 9.61568 7859 ft 168 kts 188°
2026-04-18 02:03 1.23000 9.61251 7862 ft 168 kts 189°
2026-04-18 02:03 1.21864 9.60932 7859 ft 168 kts 189°
2026-04-18 02:04 1.20715 9.60608 7849 ft 169 kts 189°
2026-04-18 02:04 1.19585 9.60291 7858 ft 168 kts 188°
2026-04-18 02:04 1.18442 9.59969 7857 ft 168 kts 188°
2026-04-18 02:04 1.17311 9.59652 7854 ft 168 kts 188°
2026-04-18 02:05 1.16167 9.59331 7853 ft 168 kts 188°
2026-04-18 02:05 1.15043 9.59016 7849 ft 168 kts 188°
2026-04-18 02:05 1.13899 9.58694 7843 ft 168 kts 188°
2026-04-18 02:05 1.12762 9.58376 7844 ft 168 kts 188°
2026-04-18 02:06 1.11630 9.58058 7844 ft 168 kts 188°
2026-04-18 02:06 1.10506 9.57743 7834 ft 168 kts 188°
2026-04-18 02:06 1.09361 9.57421 7830 ft 169 kts 189°
2026-04-18 02:06 1.08223 9.57101 7840 ft 169 kts 188°
2026-04-18 02:07 1.07087 9.56783 7836 ft 169 kts 188°
2026-04-18 02:07 1.05952 9.56464 7834 ft 168 kts 189°
2026-04-18 02:07 1.04807 9.56143 7822 ft 168 kts 189°
2026-04-18 02:07 1.03667 9.55823 7807 ft 169 kts 189°
2026-04-18 02:08 1.02536 9.55506 7802 ft 169 kts 189°
2026-04-18 02:08 1.01380 9.55181 7806 ft 168 kts 189°
2026-04-18 02:08 1.00241 9.54861 7798 ft 169 kts 189°
2026-04-18 02:08 0.99112 9.54545 7790 ft 169 kts 189°
2026-04-18 02:09 0.97960 9.54221 7803 ft 169 kts 188°
2026-04-18 02:09 0.96820 9.53901 7801 ft 169 kts 189°
2026-04-18 02:09 0.95664 9.53575 7799 ft 169 kts 188°
2026-04-18 02:09 0.94515 9.53253 7806 ft 169 kts 188°
2026-04-18 02:10 0.93367 9.52932 7812 ft 168 kts 188°
2026-04-18 02:10 0.92225 9.52611 7795 ft 169 kts 188°
2026-04-18 02:10 0.91067 9.52287 7801 ft 169 kts 189°
2026-04-18 02:10 0.89926 9.51967 7801 ft 169 kts 188°
2026-04-18 02:11 0.88779 9.51645 7785 ft 169 kts 189°
2026-04-18 02:11 0.87625 9.51321 7794 ft 169 kts 189°
2026-04-18 02:11 0.86488 9.51002 7801 ft 169 kts 189°
2026-04-18 02:11 0.85346 9.50680 7810 ft 169 kts 189°
2026-04-18 02:12 0.84200 9.50358 7814 ft 169 kts 189°
2026-04-18 02:12 0.83066 9.50040 7809 ft 169 kts 189°
2026-04-18 02:12 0.81926 9.49719 7804 ft 169 kts 188°
2026-04-18 02:12 0.80786 9.49399 7807 ft 169 kts 188°
2026-04-18 02:13 0.79644 9.49079 7807 ft 169 kts 189°
2026-04-18 02:13 0.78508 9.48762 7811 ft 168 kts 189°
2026-04-18 02:13 0.77372 9.48442 7810 ft 168 kts 189°
2026-04-18 02:13 0.76232 9.48122 7805 ft 168 kts 189°
2026-04-18 02:14 0.75106 9.47806 7808 ft 168 kts 189°
2026-04-18 02:14 0.73960 9.47485 7803 ft 168 kts 189°
2026-04-18 02:14 0.72816 9.47164 7804 ft 169 kts 189°
2026-04-18 02:14 0.71681 9.46846 7804 ft 169 kts 189°
2026-04-18 02:15 0.70540 9.46524 7809 ft 169 kts 189°
2026-04-18 02:15 0.69390 9.46203 7821 ft 169 kts 189°
2026-04-18 02:15 0.68264 9.45885 7821 ft 169 kts 189°
2026-04-18 02:15 0.67111 9.45562 7816 ft 169 kts 189°
2026-04-18 02:16 0.65969 9.45242 7813 ft 169 kts 189°
2026-04-18 02:16 0.64836 9.44924 7824 ft 168 kts 189°
2026-04-18 02:16 0.63689 9.44602 7815 ft 168 kts 188°
2026-04-18 02:16 0.62559 9.44285 7804 ft 169 kts 189°
2026-04-18 02:17 0.61417 9.43965 7812 ft 168 kts 189°
2026-04-18 02:17 0.60271 9.43643 7809 ft 169 kts 189°
2026-04-18 02:17 0.59135 9.43325 7816 ft 169 kts 189°
2026-04-18 02:17 0.57991 9.43004 7820 ft 169 kts 189°
2026-04-18 02:18 0.56845 9.42682 7821 ft 169 kts 189°
2026-04-18 02:18 0.55707 9.42363 7810 ft 169 kts 189°
2026-04-18 02:18 0.54559 9.42040 7813 ft 169 kts 189°
2026-04-18 02:18 0.53424 9.41723 7815 ft 168 kts 189°
2026-04-18 02:19 0.52285 9.41402 7799 ft 169 kts 189°
2026-04-18 02:19 0.51143 9.41082 7801 ft 169 kts 189°
2026-04-18 02:19 0.49985 9.40757 7812 ft 169 kts 188°
2026-04-18 02:19 0.48860 9.40441 7812 ft 168 kts 188°
2026-04-18 02:20 0.47729 9.40039 7780 ft 172 kts 201°
2026-04-18 02:20 0.46679 9.39482 7822 ft 170 kts 202°
2026-04-18 02:20 0.45624 9.38915 7812 ft 170 kts 202°
2026-04-18 02:20 0.44567 9.38345 7796 ft 171 kts 203°
2026-04-18 02:21 0.43503 9.37770 7791 ft 171 kts 203°
2026-04-18 02:21 0.42445 9.37199 7795 ft 170 kts 203°
2026-04-18 02:21 0.41397 9.36632 7795 ft 170 kts 203°
2026-04-18 02:21 0.40350 9.36065 7795 ft 170 kts 203°
2026-04-18 02:22 0.39284 9.35488 7791 ft 171 kts 203°
2026-04-18 02:22 0.38241 9.34923 7793 ft 170 kts 203°
2026-04-18 02:22 0.37179 9.34351 7798 ft 170 kts 202°
2026-04-18 02:22 0.36140 9.33792 7796 ft 170 kts 203°
2026-04-18 02:23 0.35080 9.33221 7797 ft 170 kts 203°
2026-04-18 02:23 0.34033 9.32655 7788 ft 170 kts 203°
2026-04-18 02:23 0.32986 9.32090 7791 ft 170 kts 203°
2026-04-18 02:23 0.31933 9.31521 7777 ft 171 kts 203°
2026-04-18 02:24 0.30872 9.30945 7781 ft 171 kts 203°
2026-04-18 02:24 0.29820 9.30376 7800 ft 170 kts 203°
2026-04-18 02:24 0.28769 9.29806 7796 ft 171 kts 203°
2026-04-18 02:24 0.27725 9.29242 7799 ft 170 kts 203°
2026-04-18 02:25 0.26669 9.28671 7804 ft 170 kts 203°
2026-04-18 02:25 0.25615 9.28101 7793 ft 171 kts 203°
2026-04-18 02:25 0.24559 9.27529 7804 ft 171 kts 203°
2026-04-18 02:25 0.23511 9.26962 7806 ft 171 kts 203°
2026-04-18 02:26 0.22454 9.26390 7815 ft 170 kts 203°
2026-04-18 02:26 0.21404 9.25821 7801 ft 171 kts 203°
2026-04-18 02:26 0.20348 9.25249 7808 ft 170 kts 203°
2026-04-18 02:26 0.19292 9.24678 7797 ft 171 kts 203°
2026-04-18 02:27 0.18241 9.24108 7811 ft 170 kts 203°
2026-04-18 02:27 0.17200 9.23545 7802 ft 170 kts 203°
2026-04-18 02:27 0.16146 9.22974 7817 ft 170 kts 203°
2026-04-18 02:27 0.15094 9.22403 7806 ft 170 kts 203°
2026-04-18 02:28 0.14053 9.21840 7799 ft 171 kts 203°
2026-04-18 02:28 0.13003 9.21273 7794 ft 171 kts 203°
2026-04-18 02:28 0.12304 9.20894 7797 ft 170 kts 203°
2026-04-18 02:28 0.10884 9.20126 7795 ft 171 kts 203°
2026-04-18 02:29 0.09837 9.19559 7787 ft 171 kts 203°
2026-04-18 02:29 0.08775 9.18983 7783 ft 172 kts 203°
2026-04-18 02:29 0.07720 9.18413 7790 ft 171 kts 203°
2026-04-18 02:29 0.06664 9.17840 7798 ft 172 kts 203°
2026-04-18 02:30 0.05602 9.17266 7807 ft 171 kts 203°
2026-04-18 02:30 0.04559 9.16701 7809 ft 170 kts 203°
2026-04-18 02:30 0.03501 9.16128 7801 ft 170 kts 203°
2026-04-18 02:30 0.02456 9.15563 7795 ft 171 kts 203°
2026-04-18 02:31 0.01410 9.14997 7801 ft 170 kts 203°
2026-04-18 02:31 0.00366 9.14432 7804 ft 170 kts 203°
2026-04-18 02:31 -0.00682 9.13864 7800 ft 170 kts 203°
2026-04-18 02:31 -0.01742 9.13290 7786 ft 170 kts 203°
2026-04-18 02:32 -0.02784 9.12726 7784 ft 170 kts 203°
2026-04-18 02:32 -0.03838 9.12155 7773 ft 171 kts 203°
2026-04-18 02:32 -0.04893 9.11584 7781 ft 171 kts 203°
2026-04-18 02:32 -0.05946 9.11014 7777 ft 172 kts 203°
2026-04-18 02:33 -0.07002 9.10442 7788 ft 172 kts 203°
2026-04-18 02:33 -0.08049 9.09875 7791 ft 171 kts 203°
2026-04-18 02:33 -0.09099 9.09307 7796 ft 170 kts 203°
2026-04-18 02:33 -0.10149 9.08739 7784 ft 170 kts 203°
2026-04-18 02:34 -0.11198 9.08170 7784 ft 170 kts 203°
2026-04-18 02:34 -0.12244 9.07602 7781 ft 170 kts 203°
2026-04-18 02:34 -0.13283 9.07039 7775 ft 170 kts 203°
2026-04-18 02:34 -0.14341 9.06464 7779 ft 171 kts 203°
2026-04-18 02:35 -0.15381 9.05899 7793 ft 170 kts 203°
2026-04-18 02:35 -0.16434 9.05326 7791 ft 171 kts 203°
2026-04-18 02:35 -0.17488 9.04753 7793 ft 171 kts 203°
2026-04-18 02:35 -0.18537 9.04182 7795 ft 171 kts 203°
2026-04-18 02:36 -0.19584 9.03612 7798 ft 171 kts 203°
2026-04-18 02:36 -0.20641 9.03037 7794 ft 171 kts 203°
2026-04-18 02:36 -0.21684 9.02470 7803 ft 170 kts 203°
2026-04-18 02:36 -0.22736 9.01897 7798 ft 171 kts 203°
2026-04-18 02:37 -0.23782 9.01328 7801 ft 171 kts 203°
2026-04-18 02:37 -0.24829 9.00759 7802 ft 171 kts 203°
2026-04-18 02:37 -0.25883 9.00185 7802 ft 171 kts 203°
2026-04-18 02:37 -0.26936 8.99613 7803 ft 171 kts 203°
2026-04-18 02:38 -0.27993 8.99038 7801 ft 171 kts 203°
2026-04-18 02:38 -0.29045 8.98466 7797 ft 171 kts 203°
2026-04-18 02:38 -0.30099 8.97893 7801 ft 172 kts 204°
2026-04-18 02:38 -0.31147 8.97320 7808 ft 171 kts 204°
2026-04-18 02:39 -0.32204 8.96745 7795 ft 172 kts 203°
2026-04-18 02:39 -0.33256 8.96172 7808 ft 170 kts 203°
2026-04-18 02:39 -0.34311 8.95598 7800 ft 170 kts 203°
2026-04-18 02:39 -0.35354 8.95030 7795 ft 170 kts 203°
2026-04-18 02:40 -0.36403 8.94460 7797 ft 170 kts 203°
2026-04-18 02:40 -0.37452 8.93890 7800 ft 170 kts 203°
2026-04-18 02:40 -0.38505 8.93317 7798 ft 170 kts 203°
2026-04-18 02:40 -0.39552 8.92747 7792 ft 171 kts 203°
2026-04-18 02:41 -0.40597 8.92180 7802 ft 170 kts 203°
2026-04-18 02:41 -0.41648 8.91608 7803 ft 171 kts 203°
2026-04-18 02:41 -0.42703 8.91035 7802 ft 171 kts 204°
2026-04-18 02:41 -0.43764 8.90457 7801 ft 172 kts 204°
2026-04-18 02:42 -0.44815 8.89885 7813 ft 171 kts 203°
2026-04-18 02:42 -0.45861 8.89316 7805 ft 171 kts 203°
2026-04-18 02:42 -0.46914 8.88744 7794 ft 171 kts 203°
2026-04-18 02:42 -0.47972 8.88168 7788 ft 171 kts 203°
2026-04-18 02:43 -0.49016 8.87599 7790 ft 170 kts 203°
2026-04-18 02:43 -0.50060 8.87032 7796 ft 170 kts 203°
2026-04-18 02:43 -0.51119 8.86456 7795 ft 170 kts 203°
2026-04-18 02:43 -0.52168 8.85885 7797 ft 170 kts 203°
2026-04-18 02:44 -0.53209 8.85320 7785 ft 171 kts 203°
2026-04-18 02:44 -0.54266 8.84745 7781 ft 171 kts 203°
2026-04-18 02:44 -0.55312 8.84176 7786 ft 171 kts 203°
2026-04-18 02:44 -0.56374 8.83598 7790 ft 171 kts 203°
2026-04-18 02:45 -0.57432 8.83022 7788 ft 171 kts 203°
2026-04-18 02:45 -0.58478 8.82453 7786 ft 171 kts 203°
2026-04-18 02:45 -0.59527 8.81883 7798 ft 170 kts 203°
2026-04-18 02:45 -0.60583 8.81309 7790 ft 171 kts 203°
2026-04-18 02:46 -0.61624 8.80742 7791 ft 170 kts 203°
2026-04-18 02:46 -0.62674 8.80171 7788 ft 170 kts 203°
2026-04-18 02:46 -0.63726 8.79599 7791 ft 170 kts 203°
2026-04-18 02:46 -0.64779 8.79027 7796 ft 169 kts 203°
2026-04-18 02:47 -0.65832 8.78453 7780 ft 170 kts 203°
2026-04-18 02:47 -0.66866 8.77892 7793 ft 169 kts 203°
2026-04-18 02:47 -0.67923 8.77316 7781 ft 171 kts 203°
2026-04-18 02:47 -0.68965 8.76750 7801 ft 170 kts 203°
2026-04-18 02:48 -0.70009 8.76182 7792 ft 171 kts 203°
2026-04-18 02:48 -0.71066 8.75606 7801 ft 170 kts 203°
2026-04-18 02:48 -0.72111 8.75039 7801 ft 171 kts 203°
2026-04-18 02:48 -0.73171 8.74480 7813 ft 170 kts 202°
2026-04-18 02:49 -0.74228 8.73939 7797 ft 171 kts 202°
2026-04-18 02:49 -0.75295 8.73396 7806 ft 170 kts 202°
2026-04-18 02:49 -0.76350 8.72859 7798 ft 170 kts 201°
2026-04-18 02:49 -0.77412 8.72320 7797 ft 169 kts 201°
2026-04-18 02:50 -0.78480 8.71778 7798 ft 169 kts 201°
2026-04-18 02:50 -0.79525 8.71249 7789 ft 169 kts 202°
2026-04-18 02:50 -0.80593 8.70707 7785 ft 170 kts 202°
2026-04-18 02:50 -0.81652 8.70164 7809 ft 169 kts 202°
2026-04-18 02:51 -0.82696 8.69627 7811 ft 169 kts 202°
2026-04-18 02:51 -0.83757 8.69081 7797 ft 170 kts 202°
2026-04-18 02:51 -0.84458 8.68719 7803 ft 170 kts 202°
2026-04-18 02:51 -0.85874 8.67986 7798 ft 170 kts 202°
2026-04-18 02:52 -0.86577 8.67621 7797 ft 169 kts 202°
2026-04-18 02:52 -0.87983 8.66886 7803 ft 169 kts 202°
2026-04-18 02:52 -0.89029 8.66338 7800 ft 168 kts 202°
2026-04-18 02:52 -0.90076 8.65792 7796 ft 168 kts 202°
2026-04-18 02:53 -0.91118 8.65250 7797 ft 168 kts 202°
2026-04-18 02:53 -0.92177 8.64700 7786 ft 170 kts 202°
2026-04-18 02:53 -0.93227 8.64151 7800 ft 170 kts 202°
2026-04-18 02:53 -0.94291 8.63589 7799 ft 170 kts 203°
2026-04-18 02:54 -0.95346 8.63031 7809 ft 169 kts 203°
2026-04-18 02:54 -0.96401 8.62472 7799 ft 169 kts 202°
2026-04-18 02:54 -0.97469 8.61905 7803 ft 169 kts 203°
2026-04-18 02:54 -0.98530 8.61341 7804 ft 169 kts 202°
2026-04-18 02:55 -0.99582 8.60782 7804 ft 169 kts 202°
2026-04-18 02:55 -1.00636 8.60223 7798 ft 169 kts 202°
2026-04-18 02:55 -1.01685 8.59669 7803 ft 168 kts 202°
2026-04-18 02:55 -1.02740 8.59126 7795 ft 168 kts 201°
2026-04-18 02:56 -1.03820 8.58610 7788 ft 168 kts 199°
2026-04-18 02:56 -1.04903 8.58128 7787 ft 168 kts 198°
2026-04-18 02:56 -1.06745 8.57384 7789 ft 168 kts 195°
2026-04-18 02:57 -1.07851 8.56979 7789 ft 168 kts 193°
2026-04-18 02:57 -1.08965 8.56603 7794 ft 168 kts 192°
2026-04-18 02:57 -1.10469 8.56146 7782 ft 168 kts 190°
2026-04-18 02:57 -1.11600 8.55841 7781 ft 168 kts 188°
2026-04-18 02:58 -1.12752 8.55562 7789 ft 167 kts 186°
2026-04-18 02:58 -1.13499 8.55400 7780 ft 167 kts 185°
2026-04-18 02:58 -1.14652 8.55177 7787 ft 166 kts 184°
2026-04-18 02:58 -1.15813 8.54986 7785 ft 166 kts 181°
2026-04-18 02:59 -1.16960 8.54832 7775 ft 166 kts 180°
2026-04-18 02:59 -1.18108 8.54711 7780 ft 165 kts 178°
2026-04-18 02:59 -1.19272 8.54621 7788 ft 164 kts 176°
2026-04-18 02:59 -1.20434 8.54563 7788 ft 164 kts 175°
2026-04-18 03:00 -1.21577 8.54537 7787 ft 164 kts 174°
2026-04-18 03:00 -1.22731 8.54540 7793 ft 164 kts 172°
2026-04-18 03:00 -1.23887 8.54574 7798 ft 164 kts 171°
2026-04-18 03:00 -1.25039 8.54637 7804 ft 164 kts 169°
2026-04-18 03:01 -1.26182 8.54734 7800 ft 163 kts 167°
2026-04-18 03:01 -1.27331 8.54865 7805 ft 163 kts 165°
2026-04-18 03:01 -1.28459 8.55028 7799 ft 163 kts 163°
2026-04-18 03:01 -1.29586 8.55226 7802 ft 162 kts 161°
2026-04-18 03:02 -1.30697 8.55457 7800 ft 162 kts 159°
2026-04-18 03:02 -1.31796 8.55721 7804 ft 161 kts 158°
2026-04-18 03:02 -1.32880 8.56019 7803 ft 160 kts 156°
2026-04-18 03:02 -1.33960 8.56353 7801 ft 159 kts 154°
2026-04-18 03:03 -1.35014 8.56717 7797 ft 159 kts 152°
2026-04-18 03:03 -1.36055 8.57113 7794 ft 159 kts 150°
2026-04-18 03:03 -1.37088 8.57543 7798 ft 158 kts 148°
2026-04-18 03:03 -1.38107 8.58006 7800 ft 158 kts 147°
2026-04-18 03:04 -1.39089 8.58493 7800 ft 157 kts 144°
2026-04-18 03:04 -1.40055 8.59012 7799 ft 157 kts 143°
2026-04-18 03:04 -1.41008 8.59565 7797 ft 156 kts 141°
2026-04-18 03:04 -1.41935 8.60146 7798 ft 156 kts 139°
2026-04-18 03:05 -1.42845 8.60761 7799 ft 155 kts 137°
2026-04-18 03:05 -1.43722 8.61400 7798 ft 155 kts 135°
2026-04-18 03:05 -1.44575 8.62064 7804 ft 155 kts 133°
2026-04-18 03:05 -1.45407 8.62762 7804 ft 154 kts 131°
2026-04-18 03:06 -1.46208 8.63485 7799 ft 154 kts 129°
2026-04-18 03:06 -1.46977 8.64230 7808 ft 153 kts 127°
2026-04-18 03:06 -1.47718 8.65005 7800 ft 153 kts 125°
2026-04-18 03:06 -1.48435 8.65812 7798 ft 153 kts 122°
2026-04-18 03:07 -1.49107 8.66628 7797 ft 152 kts 121°
2026-04-18 03:07 -1.49755 8.67479 7799 ft 151 kts 118°
2026-04-18 03:07 -1.50360 8.68340 7801 ft 151 kts 116°
2026-04-18 03:07 -1.50931 8.69223 7798 ft 150 kts 114°
2026-04-18 03:08 -1.51463 8.70118 7798 ft 150 kts 111°
2026-04-18 03:08 -1.51961 8.71035 7794 ft 149 kts 109°
2026-04-18 03:08 -1.52423 8.71970 7797 ft 149 kts 107°
2026-04-18 03:08 -1.52845 8.72916 7794 ft 148 kts 105°
2026-04-18 03:09 -1.53232 8.73882 7801 ft 148 kts 103°
2026-04-18 03:09 -1.53578 8.74863 7801 ft 147 kts 101°
2026-04-18 03:09 -1.53880 8.75837 7803 ft 147 kts 98°
2026-04-18 03:09 -1.54142 8.76829 7800 ft 147 kts 97°
2026-04-18 03:10 -1.54364 8.77829 7795 ft 146 kts 95°
2026-04-18 03:10 -1.54544 8.78836 7794 ft 146 kts 92°
2026-04-18 03:10 -1.54683 8.79839 7796 ft 146 kts 90°
2026-04-18 03:10 -1.54782 8.80858 7804 ft 145 kts 88°
2026-04-18 03:11 -1.54837 8.81870 7810 ft 144 kts 85°
2026-04-18 03:11 -1.54848 8.82872 7807 ft 144 kts 83°
2026-04-18 03:11 -1.54812 8.83878 7799 ft 144 kts 81°
2026-04-18 03:11 -1.54730 8.84889 7792 ft 143 kts 78°
2026-04-18 03:12 -1.54605 8.85870 7787 ft 143 kts 76°
2026-04-18 03:12 -1.54433 8.86863 7793 ft 142 kts 73°
2026-04-18 03:12 -1.54219 8.87835 7790 ft 142 kts 71°
2026-04-18 03:12 -1.53963 8.88790 7789 ft 143 kts 69°
2026-04-18 03:13 -1.53662 8.89746 7797 ft 142 kts 66°
2026-04-18 03:13 -1.53320 8.90681 7798 ft 142 kts 64°
2026-04-18 03:13 -1.52939 8.91588 7790 ft 143 kts 62°
2026-04-18 03:13 -1.52507 8.92504 7799 ft 143 kts 59°
2026-04-18 03:14 -1.52037 8.93391 7806 ft 142 kts 57°
2026-04-18 03:14 -1.51536 8.94240 7798 ft 142 kts 54°
2026-04-18 03:14 -1.50988 8.95078 7805 ft 142 kts 52°
2026-04-18 03:14 -1.50405 8.95880 7799 ft 142 kts 50°
2026-04-18 03:15 -1.49787 8.96650 7800 ft 141 kts 47°
2026-04-18 03:15 -1.49127 8.97397 7794 ft 142 kts 45°
2026-04-18 03:15 -1.48434 8.98115 7791 ft 142 kts 43°
2026-04-18 03:15 -1.47713 8.98797 7806 ft 141 kts 40°
2026-04-18 03:16 -1.46957 8.99446 7805 ft 142 kts 37°
2026-04-18 03:16 -1.46181 9.00050 7801 ft 142 kts 35°
2026-04-18 03:16 -1.45367 9.00626 7794 ft 143 kts 33°
2026-04-18 03:16 -1.44514 9.01171 7798 ft 143 kts 30°
2026-04-18 03:17 -1.43648 9.01670 7800 ft 143 kts 28°
2026-04-18 03:17 -1.42757 9.02129 7806 ft 143 kts 25°
2026-04-18 03:17 -1.41833 9.02549 7803 ft 144 kts 22°
2026-04-18 03:17 -1.40893 9.02924 7796 ft 144 kts 20°
2026-04-18 03:18 -1.39935 9.03253 7801 ft 144 kts 18°
2026-04-18 03:18 -1.38968 9.03532 7796 ft 144 kts 15°
2026-04-18 03:18 -1.37969 9.03684 7802 ft 147 kts 357°
2026-04-18 03:18 -1.37027 9.03236 7790 ft 157 kts 317°
2026-04-18 03:19 -1.36602 9.02210 7779 ft 167 kts 274°
2026-04-18 03:19 -1.36974 9.01125 7787 ft 170 kts 229°
2026-04-18 03:19 -1.37973 9.00550 7787 ft 166 kts 184°
2026-04-18 03:19 -1.39049 9.00802 7797 ft 155 kts 137°
2026-04-18 03:20 -1.39542 9.01679 7798 ft 144 kts 89°
2026-04-18 03:20 -1.39157 9.02555 7799 ft 142 kts 39°
2026-04-18 03:20 -1.38196 9.02743 7790 ft 151 kts 348°
2026-04-18 03:20 -1.37392 9.02020 7794 ft 163 kts 296°
2026-04-18 03:21 -1.37450 9.00900 7804 ft 169 kts 242°
2026-04-18 03:21 -1.38371 9.00219 7794 ft 166 kts 186°
2026-04-18 03:21 -1.39408 9.00538 7790 ft 153 kts 128°
2026-04-18 03:21 -1.39626 9.01487 7790 ft 142 kts 68°
2026-04-18 03:22 -1.38868 9.02040 7795 ft 145 kts
2026-04-18 03:22 -1.37997 9.01521 7792 ft 161 kts 302°
2026-04-18 03:22 -1.38079 9.00421 7795 ft 170 kts 234°
2026-04-18 03:22 -1.39110 8.99997 7798 ft 161 kts 163°
2026-04-18 03:23 -1.39778 9.00727 7800 ft 144 kts 89°
2026-04-18 03:23 -1.39211 9.01445 7795 ft 145 kts 15°
2026-04-18 03:23 -1.38326 9.00993 7796 ft 163 kts 302°
2026-04-18 03:23 -1.38480 8.99897 7807 ft 170 kts 227°
2026-04-18 03:24 -1.39541 8.99638 7813 ft 158 kts 152°
2026-04-18 03:24 -1.40034 9.00473 7809 ft 143 kts 77°
2026-04-18 03:24 -1.39331 9.01050 7812 ft 147 kts
2026-04-18 03:24 -1.38536 9.00414 7802 ft 164 kts 289°
2026-04-18 03:25 -1.38919 8.99364 7806 ft 169 kts 214°
2026-04-18 03:25 -1.39989 8.99332 7799 ft 155 kts 140°
2026-04-18 03:25 -1.40277 9.00235 7801 ft 141 kts 65°
2026-04-18 03:25 -1.39429 9.00630 7798 ft 150 kts 350°
2026-04-18 03:26 -1.38796 8.99803 7793 ft 167 kts 275°
2026-04-18 03:26 -1.39385 8.98867 7792 ft 168 kts 201°
2026-04-18 03:26 -1.40422 8.99067 7804 ft 151 kts 126°
2026-04-18 03:26 -1.40461 8.99994 7811 ft 141 kts 51°
2026-04-18 03:27 -1.39540 9.00162 7799 ft 153 kts 337°
2026-04-18 03:27 -1.39091 8.99204 7791 ft 168 kts 262°
2026-04-18 03:27 -1.39872 8.98408 7799 ft 165 kts 187°
2026-04-18 03:27 -1.40814 8.98834 7797 ft 149 kts 112°
2026-04-18 03:28 -1.40619 8.99728 7804 ft 142 kts 38°
2026-04-18 03:28 -1.39664 8.99666 7802 ft 156 kts 323°
2026-04-18 03:28 -1.39435 8.98611 7797 ft 170 kts 249°
2026-04-18 03:28 -1.40357 8.97994 7805 ft 164 kts 174°
2026-04-18 03:29 -1.41171 8.98603 7804 ft 146 kts 99°
2026-04-18 03:29 -1.40752 8.99418 7798 ft 144 kts 24°
2026-04-18 03:29 -1.39817 8.99117 7795 ft 160 kts 310°
2026-04-18 03:29 -1.39816 8.98026 7795 ft 170 kts 236°
2026-04-18 03:30 -1.40838 8.97619 7801 ft 160 kts 161°
2026-04-18 03:30 -1.41468 8.98375 7802 ft 144 kts 86°
2026-04-18 03:30 -1.40873 8.99066 7794 ft 145 kts 12°
2026-04-18 03:30 -1.40005 8.98564 7797 ft 162 kts 297°
2026-04-18 03:31 -1.40227 8.97493 7797 ft 169 kts 223°
2026-04-18 03:31 -1.41309 8.97305 7800 ft 158 kts 148°
2026-04-18 03:31 -1.41740 8.98161 7802 ft 142 kts 74°
2026-04-18 03:31 -1.40986 8.98687 7811 ft 147 kts 359°
2026-04-18 03:32 -1.40248 8.97985 7798 ft 165 kts 284°
2026-04-18 03:32 -1.40297 8.97457 7793 ft 170 kts 250°
2026-04-18 03:32 -1.40990 8.96838 7728 ft 167 kts 191°
2026-04-18 03:32 -1.42010 8.97199 7748 ft 154 kts 124°
2026-04-18 03:33 -1.42037 8.98149 7822 ft 141 kts 53°
2026-04-18 03:33 -1.41125 8.98354 7811 ft 151 kts 340°
2026-04-18 03:33 -1.40630 8.97424 7775 ft 168 kts 267°
2026-04-18 03:33 -1.41347 8.96566 7778 ft 168 kts 195°
2026-04-18 03:34 -1.42358 8.96874 7802 ft 152 kts 123°
2026-04-18 03:34 -1.42335 8.97809 7820 ft 141 kts 50°
2026-04-18 03:34 -1.41401 8.97949 7811 ft 153 kts 337°
2026-04-18 03:34 -1.40952 8.96984 7795 ft 169 kts 264°
2026-04-18 03:35 -1.41712 8.96148 7800 ft 168 kts 192°
2026-04-18 03:35 -1.42826 8.95835 7834 ft 169 kts 203°
2026-04-18 03:35 -1.43690 8.95027 7822 ft 171 kts 235°
2026-04-18 03:35 -1.44049 8.93917 7821 ft 168 kts 266°
2026-04-18 03:36 -1.44030 8.92751 7849 ft 166 kts 269°
2026-04-18 03:36 -1.44124 8.91601 7832 ft 168 kts 262°
2026-04-18 03:36 -1.44337 8.90462 7822 ft 168 kts 257°
2026-04-18 03:36 -1.44628 8.89327 7813 ft 169 kts 253°
2026-04-18 03:37 -1.44967 8.88199 7807 ft 168 kts 251°
2026-04-18 03:37 -1.45340 8.87080 7804 ft 169 kts 250°
2026-04-18 03:37 -1.45734 8.85969 7798 ft 170 kts 249°
2026-04-18 03:37 -1.46146 8.84851 7800 ft 170 kts 248°
2026-04-18 03:38 -1.46560 8.83754 7812 ft 170 kts 248°
2026-04-18 03:38 -1.46989 8.82636 7827 ft 169 kts 247°
2026-04-18 03:38 -1.47417 8.81540 7818 ft 170 kts 247°
2026-04-18 03:38 -1.47853 8.80429 7813 ft 170 kts 247°
2026-04-18 03:39 -1.48287 8.79330 7814 ft 170 kts 247°
2026-04-18 03:39 -1.48719 8.78233 7817 ft 169 kts 247°
2026-04-18 03:39 -1.49159 8.77125 7802 ft 170 kts 247°
2026-04-18 03:39 -1.49589 8.76040 7801 ft 169 kts 247°
2026-04-18 03:40 -1.50027 8.74936 7800 ft 169 kts 246°
2026-04-18 03:40 -1.50463 8.73841 7796 ft 169 kts 247°
2026-04-18 03:40 -1.50910 8.72716 7802 ft 169 kts 247°
2026-04-18 03:40 -1.51346 8.71620 7796 ft 169 kts 246°
2026-04-18 03:41 -1.51788 8.70507 7792 ft 170 kts 246°
2026-04-18 03:41 -1.52226 8.69405 7796 ft 170 kts 246°
2026-04-18 03:41 -1.52669 8.68293 7807 ft 169 kts 246°
2026-04-18 03:41 -1.53107 8.67190 7802 ft 170 kts 246°
2026-04-18 03:42 -1.53545 8.66092 7810 ft 169 kts 246°
2026-04-18 03:42 -1.53984 8.64987 7807 ft 169 kts 246°
2026-04-18 03:42 -1.54421 8.63892 7796 ft 170 kts 246°
2026-04-18 03:42 -1.54861 8.62784 7795 ft 170 kts 247°
2026-04-18 03:43 -1.55299 8.61681 7800 ft 169 kts 246°
2026-04-18 03:43 -1.55735 8.60584 7800 ft 169 kts 246°
2026-04-18 03:43 -1.56168 8.59497 7793 ft 170 kts 246°
2026-04-18 03:43 -1.56607 8.58393 7794 ft 170 kts 246°
2026-04-18 03:44 -1.57042 8.57299 7801 ft 169 kts 246°
2026-04-18 03:44 -1.57478 8.56203 7796 ft 170 kts 246°
2026-04-18 03:44 -1.57920 8.55092 7798 ft 170 kts 246°
2026-04-18 03:44 -1.58356 8.53994 7802 ft 170 kts 246°
2026-04-18 03:45 -1.58792 8.52898 7804 ft 169 kts 246°
2026-04-18 03:45 -1.59234 8.51789 7791 ft 170 kts 247°
2026-04-18 03:45 -1.59673 8.50686 7796 ft 170 kts 246°
2026-04-18 03:45 -1.60109 8.49588 7800 ft 170 kts 246°
2026-04-18 03:46 -1.60548 8.48484 7799 ft 170 kts 246°
2026-04-18 03:46 -1.60986 8.47381 7804 ft 169 kts 246°
2026-04-18 03:46 -1.61419 8.46294 7799 ft 170 kts 246°
2026-04-18 03:46 -1.61860 8.45186 7799 ft 169 kts 246°
2026-04-18 03:47 -1.62297 8.44085 7805 ft 169 kts 246°
2026-04-18 03:47 -1.62732 8.42991 7801 ft 169 kts 246°
2026-04-18 03:47 -1.63163 8.41907 7801 ft 169 kts 246°
2026-04-18 03:47 -1.63600 8.40810 7799 ft 169 kts 246°
2026-04-18 03:48 -1.64037 8.39710 7791 ft 170 kts 246°
2026-04-18 03:48 -1.64475 8.38608 7805 ft 169 kts 246°
2026-04-18 03:48 -1.64913 8.37506 7801 ft 169 kts 246°
2026-04-18 03:48 -1.65350 8.36409 7802 ft 169 kts 246°
2026-04-18 03:49 -1.65786 8.35310 7805 ft 169 kts 246°
2026-04-18 03:49 -1.66224 8.34209 7806 ft 169 kts 246°
2026-04-18 03:49 -1.66660 8.33117 7797 ft 170 kts 247°
2026-04-18 03:49 -1.67099 8.32014 7810 ft 169 kts 246°
2026-04-18 03:50 -1.67533 8.30926 7797 ft 170 kts 247°
2026-04-18 03:50 -1.67973 8.29818 7808 ft 169 kts 246°
2026-04-18 03:50 -1.68407 8.28726 7809 ft 169 kts 246°
2026-04-18 03:50 -1.68846 8.27624 7806 ft 170 kts 246°
2026-04-18 03:51 -1.69284 8.26521 7811 ft 169 kts 246°
2026-04-18 03:51 -1.69724 8.25415 7811 ft 169 kts 246°
2026-04-18 03:51 -1.70162 8.24315 7806 ft 170 kts 246°
2026-04-18 03:51 -1.70601 8.23211 7805 ft 169 kts 246°
2026-04-18 03:52 -1.71035 8.22120 7804 ft 169 kts 246°
2026-04-18 03:52 -1.71564 8.21075 7800 ft 169 kts 225°
2026-04-18 03:52 -1.72585 8.20557 7779 ft 164 kts 181°
2026-04-18 03:52 -1.73653 8.20835 7777 ft 156 kts 140°
2026-04-18 03:53 -1.74552 8.21453 7807 ft 155 kts 136°
2026-04-18 03:53 -1.75431 8.22075 7816 ft 155 kts 136°
2026-04-18 03:53 -1.76317 8.22702 7816 ft 155 kts 136°
2026-04-18 03:53 -1.77200 8.23325 7810 ft 154 kts 136°
2026-04-18 03:54 -1.78088 8.23954 7803 ft 154 kts 136°
2026-04-18 03:54 -1.78977 8.24582 7796 ft 155 kts 137°
2026-04-18 03:54 -1.79864 8.25208 7796 ft 155 kts 136°
2026-04-18 03:54 -1.80750 8.25832 7796 ft 155 kts 136°
2026-04-18 03:55 -1.81635 8.26457 7800 ft 155 kts 136°
2026-04-18 03:55 -1.82523 8.27082 7800 ft 155 kts 136°
2026-04-18 03:55 -1.83419 8.27715 7799 ft 155 kts 136°
2026-04-18 03:55 -1.84301 8.28339 7800 ft 155 kts 136°
2026-04-18 03:56 -1.85189 8.28965 7801 ft 155 kts 136°
2026-04-18 03:56 -1.86086 8.29598 7801 ft 155 kts 136°
2026-04-18 03:56 -1.86964 8.30217 7806 ft 155 kts 136°
2026-04-18 03:56 -1.87860 8.30850 7804 ft 155 kts 136°
2026-04-18 03:57 -1.89623 8.32096 7795 ft 155 kts 136°
2026-04-18 03:57 -1.90521 8.32729 7801 ft 155 kts 136°
2026-04-18 03:57 -1.91405 8.33352 7800 ft 154 kts 136°
2026-04-18 03:58 -1.92290 8.33978 7794 ft 155 kts 136°
2026-04-18 03:58 -1.93179 8.34605 7799 ft 155 kts 136°
2026-04-18 03:58 -1.94067 8.35233 7794 ft 155 kts 136°
2026-04-18 03:58 -1.94952 8.35856 7800 ft 155 kts 136°
2026-04-18 03:59 -1.95837 8.36481 7805 ft 155 kts 136°
2026-04-18 03:59 -1.96722 8.37105 7803 ft 155 kts 136°
2026-04-18 03:59 -1.97604 8.37727 7803 ft 154 kts 136°
2026-04-18 03:59 -1.98494 8.38357 7801 ft 154 kts 136°
2026-04-18 04:00 -1.99379 8.38983 7800 ft 154 kts 136°
2026-04-18 04:00 -2.00260 8.39605 7799 ft 154 kts 136°
2026-04-18 04:00 -2.01141 8.40227 7804 ft 154 kts 137°
2026-04-18 04:00 -2.02023 8.40850 7801 ft 154 kts 136°
2026-04-18 04:01 -2.02903 8.41470 7800 ft 154 kts 136°
2026-04-18 04:01 -2.03789 8.42094 7807 ft 154 kts 136°
2026-04-18 04:01 -2.04671 8.42717 7806 ft 154 kts 136°
2026-04-18 04:01 -2.05557 8.43343 7806 ft 155 kts 136°
2026-04-18 04:02 -2.06445 8.43970 7811 ft 155 kts 136°
2026-04-18 04:02 -2.07330 8.44595 7813 ft 155 kts 136°
2026-04-18 04:02 -2.08221 8.45224 7815 ft 155 kts 136°
2026-04-18 04:02 -2.09096 8.45843 7820 ft 155 kts 136°
2026-04-18 04:03 -2.09991 8.46475 7821 ft 155 kts 136°
2026-04-18 04:03 -2.10869 8.47097 7821 ft 154 kts 136°
2026-04-18 04:03 -2.11742 8.47716 7815 ft 154 kts 136°
2026-04-18 04:03 -2.12627 8.48343 7810 ft 153 kts 136°
2026-04-18 04:04 -2.13501 8.48960 7802 ft 154 kts 136°
2026-04-18 04:04 -2.14377 8.49581 7796 ft 154 kts 136°
2026-04-18 04:04 -2.15254 8.50201 7799 ft 154 kts 136°
2026-04-18 04:04 -2.16145 8.50829 7801 ft 155 kts 136°
2026-04-18 04:05 -2.17024 8.51451 7805 ft 154 kts 136°
2026-04-18 04:05 -2.17907 8.52075 7801 ft 155 kts 136°
2026-04-18 04:05 -2.18788 8.52699 7804 ft 154 kts 136°
2026-04-18 04:05 -2.19682 8.53330 7801 ft 155 kts 136°
2026-04-18 04:06 -2.20566 8.53952 7799 ft 155 kts 136°
2026-04-18 04:06 -2.21445 8.54575 7800 ft 154 kts 136°
2026-04-18 04:06 -2.22331 8.55199 7800 ft 154 kts 136°
2026-04-18 04:06 -2.23213 8.55823 7800 ft 154 kts 136°
2026-04-18 04:07 -2.24091 8.56444 7798 ft 154 kts 136°
2026-04-18 04:07 -2.24978 8.57070 7802 ft 154 kts 136°
2026-04-18 04:07 -2.25853 8.57688 7801 ft 154 kts 136°
2026-04-18 04:07 -2.26729 8.58306 7798 ft 154 kts 136°
2026-04-18 04:08 -2.27619 8.58936 7797 ft 154 kts 136°
2026-04-18 04:08 -2.28497 8.59555 7796 ft 154 kts 136°
2026-04-18 04:08 -2.29380 8.60177 7800 ft 154 kts 136°
2026-04-18 04:08 -2.30251 8.60793 7802 ft 154 kts 136°
2026-04-18 04:09 -2.31142 8.61424 7800 ft 154 kts 136°
2026-04-18 04:09 -2.32021 8.62044 7799 ft 154 kts 136°
2026-04-18 04:09 -2.32895 8.62661 7796 ft 155 kts 136°
2026-04-18 04:09 -2.33788 8.63292 7798 ft 155 kts 136°
2026-04-18 04:10 -2.34663 8.63911 7801 ft 154 kts 136°
2026-04-18 04:10 -2.35545 8.64534 7805 ft 154 kts 136°
2026-04-18 04:10 -2.36438 8.65164 7803 ft 154 kts 136°
2026-04-18 04:10 -2.37315 8.65780 7807 ft 154 kts 136°
2026-04-18 04:11 -2.38206 8.66407 7804 ft 154 kts 136°
2026-04-18 04:11 -2.39081 8.67026 7800 ft 154 kts 136°
2026-04-18 04:11 -2.39963 8.67645 7805 ft 154 kts 136°
2026-04-18 04:11 -2.40854 8.68276 7800 ft 155 kts 136°
2026-04-18 04:12 -2.41738 8.68899 7807 ft 155 kts 136°
2026-04-18 04:12 -2.42622 8.69522 7811 ft 154 kts 136°
2026-04-18 04:12 -2.43496 8.70141 7810 ft 155 kts 136°
2026-04-18 04:12 -2.44384 8.70767 7815 ft 154 kts 136°
2026-04-18 04:13 -2.45274 8.71396 7820 ft 154 kts 136°
2026-04-18 04:13 -2.46151 8.72015 7816 ft 154 kts 136°
2026-04-18 04:13 -2.47024 8.72633 7816 ft 154 kts 136°
2026-04-18 04:13 -2.47912 8.73258 7816 ft 154 kts 136°
2026-04-18 04:14 -2.48784 8.73874 7818 ft 154 kts 136°
2026-04-18 04:14 -2.49668 8.74501 7812 ft 154 kts 136°
2026-04-18 04:14 -2.50546 8.75119 7820 ft 154 kts 136°
2026-04-18 04:14 -2.51432 8.75746 7818 ft 154 kts 136°
2026-04-18 04:15 -2.52306 8.76365 7818 ft 154 kts 136°
2026-04-18 04:15 -2.53193 8.76991 7823 ft 154 kts 136°
2026-04-18 04:15 -2.54072 8.77611 7823 ft 154 kts 136°
2026-04-18 04:15 -2.54954 8.78235 7820 ft 154 kts 136°
2026-04-18 04:16 -2.55827 8.78853 7820 ft 154 kts 136°
2026-04-18 04:16 -2.56718 8.79483 7822 ft 154 kts 136°
2026-04-18 04:16 -2.57600 8.80105 7823 ft 154 kts 136°
2026-04-18 04:16 -2.58475 8.80724 7817 ft 154 kts 136°
2026-04-18 04:17 -2.59349 8.81342 7818 ft 154 kts 136°
2026-04-18 04:17 -2.60236 8.81968 7813 ft 154 kts 136°
2026-04-18 04:17 -2.61111 8.82587 7810 ft 154 kts 136°
2026-04-18 04:17 -2.61991 8.83210 7803 ft 154 kts 136°
2026-04-18 04:18 -2.62873 8.83832 7802 ft 154 kts 136°
2026-04-18 04:18 -2.63752 8.84454 7800 ft 154 kts 136°
2026-04-18 04:18 -2.64630 8.85072 7804 ft 153 kts 136°
2026-04-18 04:18 -2.65515 8.85698 7797 ft 154 kts 136°
2026-04-18 04:19 -2.66393 8.86320 7793 ft 154 kts 136°
2026-04-18 04:19 -2.67272 8.86942 7797 ft 154 kts 136°
2026-04-18 04:19 -2.68149 8.87560 7801 ft 154 kts 136°
2026-04-18 04:19 -2.69028 8.88182 7799 ft 154 kts 136°
2026-04-18 04:20 -2.69900 8.88800 7797 ft 154 kts 136°
2026-04-18 04:20 -2.70782 8.89424 7795 ft 155 kts 136°
2026-04-18 04:20 -2.71669 8.90051 7800 ft 155 kts 136°
2026-04-18 04:20 -2.72540 8.90664 7803 ft 154 kts 136°
2026-04-18 04:21 -2.73426 8.91292 7801 ft 154 kts 136°
2026-04-18 04:21 -2.74309 8.91914 7807 ft 154 kts 136°
2026-04-18 04:21 -2.75190 8.92538 7801 ft 154 kts 136°
2026-04-18 04:21 -2.76064 8.93155 7803 ft 153 kts 136°
2026-04-18 04:22 -2.76944 8.93779 7800 ft 153 kts 136°
2026-04-18 04:22 -2.77824 8.94399 7797 ft 154 kts 136°
2026-04-18 04:22 -2.78700 8.95020 7800 ft 153 kts 136°
2026-04-18 04:22 -2.79582 8.95642 7800 ft 153 kts 136°
2026-04-18 04:23 -2.80462 8.96266 7791 ft 154 kts 136°
2026-04-18 04:23 -2.81343 8.96888 7794 ft 154 kts 136°
2026-04-18 04:23 -2.82237 8.97520 7796 ft 154 kts 136°
2026-04-18 04:23 -2.83120 8.98145 7798 ft 154 kts 136°
2026-04-18 04:24 -2.83998 8.98766 7805 ft 154 kts 136°
2026-04-18 04:24 -2.84871 8.99384 7805 ft 154 kts 136°
2026-04-18 04:24 -2.85758 9.00012 7804 ft 154 kts 136°
2026-04-18 04:24 -2.86631 9.00629 7809 ft 154 kts 136°
2026-04-18 04:25 -2.87506 9.01247 7808 ft 153 kts 136°
2026-04-18 04:25 -2.88385 9.01868 7805 ft 154 kts 136°
2026-04-18 04:25 -2.89254 9.02483 7809 ft 153 kts 136°
2026-04-18 04:25 -2.90128 9.03100 7816 ft 153 kts 135°
2026-04-18 04:26 -2.91009 9.03725 7813 ft 153 kts 136°
2026-04-18 04:26 -2.91891 9.04349 7813 ft 154 kts 136°
2026-04-18 04:26 -2.92769 9.04969 7820 ft 154 kts 136°
2026-04-18 04:26 -2.93648 9.05590 7828 ft 153 kts 136°
2026-04-18 04:27 -2.94524 9.06210 7822 ft 154 kts 136°
2026-04-18 04:27 -2.95395 9.06827 7822 ft 154 kts 136°
2026-04-18 04:27 -2.96276 9.07449 7820 ft 154 kts 136°
2026-04-18 04:27 -2.97150 9.08066 7826 ft 153 kts 135°
2026-04-18 04:28 -2.98028 9.08686 7824 ft 153 kts 135°
2026-04-18 04:28 -2.98900 9.09305 7821 ft 153 kts 135°
2026-04-18 04:28 -2.99770 9.09921 7818 ft 153 kts 135°
2026-04-18 04:28 -3.00658 9.10548 7815 ft 153 kts 136°
2026-04-18 04:29 -3.01525 9.11163 7816 ft 153 kts 136°
2026-04-18 04:29 -3.02401 9.11782 7818 ft 153 kts 136°
2026-04-18 04:29 -3.03283 9.12406 7820 ft 153 kts 136°
2026-04-18 04:29 -3.04151 9.13020 7817 ft 154 kts 136°
2026-04-18 04:30 -3.05039 9.13647 7820 ft 154 kts 135°
2026-04-18 04:30 -3.05917 9.14269 7817 ft 154 kts 136°
2026-04-18 04:30 -3.06783 9.14883 7814 ft 154 kts 136°
2026-04-18 04:30 -3.07669 9.15508 7810 ft 154 kts 136°
2026-04-18 04:31 -3.08545 9.16127 7808 ft 154 kts 135°
2026-04-18 04:31 -3.09418 9.16745 7808 ft 153 kts 135°
2026-04-18 04:31 -3.10296 9.17366 7803 ft 153 kts 135°
2026-04-18 04:31 -3.11180 9.17994 7796 ft 154 kts 135°
2026-04-18 04:32 -3.12050 9.18613 7799 ft 154 kts 135°
2026-04-18 04:32 -3.12926 9.19235 7797 ft 154 kts 136°
2026-04-18 04:32 -3.13806 9.19860 7798 ft 154 kts 136°
2026-04-18 04:32 -3.14684 9.20480 7801 ft 154 kts 136°
2026-04-18 04:33 -3.15562 9.21103 7793 ft 155 kts 136°
2026-04-18 04:33 -3.16444 9.21726 7798 ft 155 kts 136°
2026-04-18 04:33 -3.17326 9.22350 7799 ft 155 kts 136°
2026-04-18 04:33 -3.18207 9.22973 7802 ft 155 kts 136°
2026-04-18 04:34 -3.19094 9.23601 7808 ft 154 kts 135°
2026-04-18 04:34 -3.19967 9.24219 7806 ft 154 kts 135°
2026-04-18 04:34 -3.20853 9.24848 7801 ft 154 kts 135°
2026-04-18 04:34 -3.21730 9.25468 7798 ft 154 kts 136°
2026-04-18 04:35 -3.22614 9.26093 7799 ft 154 kts 135°
2026-04-18 04:35 -3.23481 9.26708 7797 ft 154 kts 136°
2026-04-18 04:35 -3.24363 9.27333 7800 ft 154 kts 136°
2026-04-18 04:35 -3.25239 9.27953 7798 ft 154 kts 136°
2026-04-18 04:36 -3.26125 9.28580 7799 ft 154 kts 136°
2026-04-18 04:36 -3.27011 9.29205 7803 ft 155 kts 136°
2026-04-18 04:36 -3.27890 9.29828 7808 ft 155 kts 136°
2026-04-18 04:36 -3.28768 9.30448 7815 ft 155 kts 136°
2026-04-18 04:37 -3.29658 9.31079 7817 ft 155 kts 136°
2026-04-18 04:37 -3.30532 9.31698 7819 ft 155 kts 135°
2026-04-18 04:37 -3.31417 9.32325 7823 ft 154 kts 135°
2026-04-18 04:37 -3.32298 9.32947 7824 ft 154 kts 135°
2026-04-18 04:38 -3.33167 9.33565 7818 ft 154 kts 136°
2026-04-18 04:38 -3.34048 9.34189 7819 ft 154 kts 136°
2026-04-18 04:38 -3.34927 9.34811 7819 ft 154 kts 136°
2026-04-18 04:38 -3.35810 9.35435 7818 ft 154 kts 136°
2026-04-18 04:39 -3.36682 9.36052 7814 ft 154 kts 136°
2026-04-18 04:39 -3.37567 9.36681 7811 ft 155 kts 136°
2026-04-18 04:39 -3.38457 9.37308 7815 ft 155 kts 136°
2026-04-18 04:39 -3.39340 9.37933 7824 ft 155 kts 136°
2026-04-18 04:40 -3.40235 9.38568 7822 ft 155 kts 136°
2026-04-18 04:40 -3.41117 9.39191 7822 ft 155 kts 136°
2026-04-18 04:40 -3.42007 9.39822 7822 ft 155 kts 136°
2026-04-18 04:40 -3.42893 9.40450 7821 ft 155 kts 136°
2026-04-18 04:41 -3.43780 9.41076 7827 ft 155 kts 135°
2026-04-18 04:41 -3.44660 9.41702 7825 ft 154 kts 136°
2026-04-18 04:41 -3.45540 9.42325 7823 ft 154 kts 136°
2026-04-18 04:41 -3.46419 9.42946 7817 ft 154 kts 136°
2026-04-18 04:42 -3.47295 9.43568 7815 ft 155 kts 136°
2026-04-18 04:42 -3.48185 9.44197 7819 ft 155 kts 136°
2026-04-18 04:42 -3.49065 9.44821 7818 ft 155 kts 136°
2026-04-18 04:42 -3.49946 9.45445 7816 ft 155 kts 136°
2026-04-18 04:43 -3.50831 9.46072 7819 ft 155 kts 136°
2026-04-18 04:43 -3.51718 9.46699 7818 ft 155 kts 136°
2026-04-18 04:43 -3.52606 9.47327 7819 ft 155 kts 135°
2026-04-18 04:43 -3.53498 9.47958 7819 ft 155 kts 135°
2026-04-18 04:44 -3.54392 9.48591 7817 ft 155 kts 135°
2026-04-18 04:44 -3.55283 9.49225 7814 ft 155 kts 135°
2026-04-18 04:44 -3.56162 9.49847 7811 ft 155 kts 135°
2026-04-18 04:44 -3.57051 9.50478 7806 ft 155 kts 136°
2026-04-18 04:45 -3.57945 9.51111 7803 ft 154 kts 136°
2026-04-18 04:45 -3.58827 9.51736 7794 ft 155 kts 136°
2026-04-18 04:45 -3.59720 9.52369 7796 ft 155 kts 136°
2026-04-18 04:45 -3.60621 9.53006 7798 ft 155 kts 136°
2026-04-18 04:46 -3.61500 9.53627 7799 ft 155 kts 136°
2026-04-18 04:46 -3.62392 9.54259 7796 ft 156 kts 136°
2026-04-18 04:46 -3.63286 9.54892 7799 ft 156 kts 136°
2026-04-18 04:46 -3.64169 9.55519 7807 ft 155 kts 136°
2026-04-18 04:47 -3.65050 9.56141 7807 ft 155 kts 135°
2026-04-18 04:47 -3.65943 9.56774 7802 ft 155 kts 135°
2026-04-18 04:47 -3.66825 9.57402 7803 ft 155 kts 135°
2026-04-18 04:47 -3.67706 9.58026 7804 ft 155 kts 136°
2026-04-18 04:48 -3.68591 9.58653 7810 ft 155 kts 136°
2026-04-18 04:48 -3.69469 9.59276 7815 ft 154 kts 136°
2026-04-18 04:48 -3.70357 9.59906 7813 ft 155 kts 136°
2026-04-18 04:48 -3.71233 9.60525 7814 ft 155 kts 136°
2026-04-18 04:49 -3.72123 9.61156 7810 ft 155 kts 136°
2026-04-18 04:49 -3.73014 9.61786 7813 ft 155 kts 136°
2026-04-18 04:49 -3.73905 9.62417 7813 ft 156 kts 136°
2026-04-18 04:49 -3.74787 9.63041 7820 ft 156 kts 136°
2026-04-18 04:50 -3.75685 9.63679 7825 ft 156 kts 136°
2026-04-18 04:50 -3.76575 9.64309 7825 ft 156 kts 136°
2026-04-18 04:50 -3.77458 9.64934 7822 ft 156 kts 136°
2026-04-18 04:50 -3.78350 9.65566 7827 ft 156 kts 135°
2026-04-18 04:51 -3.79245 9.66200 7829 ft 155 kts 135°
2026-04-18 04:51 -3.80130 9.66826 7826 ft 155 kts 135°
2026-04-18 04:51 -3.81007 9.67448 7821 ft 155 kts 136°
2026-04-18 04:51 -3.81894 9.68074 7816 ft 155 kts 136°
2026-04-18 04:52 -3.82777 9.68699 7813 ft 155 kts 135°
2026-04-18 04:52 -3.83673 9.69332 7806 ft 156 kts 136°
2026-04-18 04:52 -3.84563 9.69961 7816 ft 156 kts 136°
2026-04-18 04:52 -3.85448 9.70588 7824 ft 156 kts 135°
2026-04-18 04:53 -3.86344 9.71222 7824 ft 156 kts 135°
2026-04-18 04:53 -3.87239 9.71858 7823 ft 156 kts 135°
2026-04-18 04:53 -3.88126 9.72488 7824 ft 156 kts 135°
2026-04-18 04:53 -3.89014 9.73117 7825 ft 156 kts 135°
2026-04-18 04:54 -3.89897 9.73744 7822 ft 156 kts 135°
2026-04-18 04:54 -3.90789 9.74377 7817 ft 156 kts 136°
2026-04-18 04:54 -3.91682 9.75012 7819 ft 156 kts 136°
2026-04-18 04:54 -3.92568 9.75639 7822 ft 156 kts 136°
2026-04-18 04:55 -3.93462 9.76272 7824 ft 156 kts 135°
2026-04-18 04:55 -3.94348 9.76899 7822 ft 156 kts 136°
2026-04-18 04:55 -3.95238 9.77530 7824 ft 156 kts 136°
2026-04-18 04:56 -3.97024 9.78797 7816 ft 156 kts 135°
2026-04-18 04:56 -3.97918 9.79428 7818 ft 156 kts 135°
2026-04-18 04:56 -3.98805 9.80057 7813 ft 156 kts 135°
2026-04-18 04:56 -3.99691 9.80688 7814 ft 156 kts 135°
2026-04-18 04:57 -4.00583 9.81321 7813 ft 156 kts 135°
2026-04-18 04:57 -4.01471 9.81953 7813 ft 156 kts 135°
2026-04-18 04:57 -4.02361 9.82584 7810 ft 156 kts 136°
2026-04-18 04:57 -4.03252 9.83216 7806 ft 156 kts 136°
2026-04-18 04:58 -4.04150 9.83853 7806 ft 156 kts 136°
2026-04-18 04:58 -4.05048 9.84488 7806 ft 156 kts 136°
2026-04-18 04:58 -4.05931 9.85114 7809 ft 156 kts 136°
2026-04-18 04:58 -4.06832 9.85753 7813 ft 156 kts 136°
2026-04-18 04:59 -4.07724 9.86385 7815 ft 157 kts 136°
2026-04-18 04:59 -4.08610 9.87013 7822 ft 156 kts 135°
2026-04-18 04:59 -4.09510 9.87651 7826 ft 156 kts 135°
2026-04-18 04:59 -4.10390 9.88277 7820 ft 156 kts 135°
2026-04-18 05:00 -4.11286 9.88915 7817 ft 156 kts 135°
2026-04-18 05:00 -4.12179 9.89552 7818 ft 156 kts 135°
2026-04-18 05:00 -4.13064 9.90183 7817 ft 156 kts 136°
2026-04-18 05:00 -4.13960 9.90819 7819 ft 156 kts 136°
2026-04-18 05:01 -4.14851 9.91451 7823 ft 156 kts 136°
2026-04-18 05:01 -4.15732 9.92076 7825 ft 156 kts 136°
2026-04-18 05:01 -4.16627 9.92714 7822 ft 156 kts 136°
2026-04-18 05:01 -4.17509 9.93339 7821 ft 156 kts 136°
2026-04-18 05:02 -4.18400 9.93970 7820 ft 156 kts 136°
2026-04-18 05:02 -4.19290 9.94603 7818 ft 156 kts 135°
2026-04-18 05:02 -4.20177 9.95231 7818 ft 156 kts 135°
2026-04-18 05:02 -4.21074 9.95869 7819 ft 156 kts 135°
2026-04-18 05:03 -4.21965 9.96503 7820 ft 156 kts 136°
2026-04-18 05:03 -4.22850 9.97131 7820 ft 156 kts 135°
2026-04-18 05:03 -4.23738 9.97762 7822 ft 156 kts 136°
2026-04-18 05:03 -4.24624 9.98389 7819 ft 156 kts 135°
2026-04-18 05:04 -4.25523 9.99027 7817 ft 156 kts 136°
2026-04-18 05:04 -4.26414 9.99661 7817 ft 157 kts 136°
2026-04-18 05:04 -4.27310 10.00295 7820 ft 157 kts 136°
2026-04-18 05:04 -4.28202 10.00929 7827 ft 156 kts 136°
2026-04-18 05:05 -4.29086 10.01555 7826 ft 156 kts 136°
2026-04-18 05:05 -4.29974 10.02187 7820 ft 156 kts 135°
2026-04-18 05:05 -4.30874 10.02826 7820 ft 156 kts 136°
2026-04-18 05:05 -4.31765 10.03458 7819 ft 156 kts 136°
2026-04-18 05:06 -4.32657 10.04090 7819 ft 156 kts 136°
2026-04-18 05:06 -4.33546 10.04722 7817 ft 156 kts 135°
2026-04-18 05:06 -4.34431 10.05351 7818 ft 156 kts 135°
2026-04-18 05:06 -4.35332 10.05991 7821 ft 156 kts 135°
2026-04-18 05:07 -4.36214 10.06617 7822 ft 156 kts 135°
2026-04-18 05:07 -4.37105 10.07251 7823 ft 156 kts 136°
2026-04-18 05:07 -4.37994 10.07881 7825 ft 156 kts 135°
2026-04-18 05:07 -4.38878 10.08510 7820 ft 156 kts 135°
2026-04-18 05:08 -4.39773 10.09144 7819 ft 156 kts 135°
2026-04-18 05:08 -4.40666 10.09778 7818 ft 156 kts 135°
2026-04-18 05:08 -4.41554 10.10411 7817 ft 156 kts 136°
2026-04-18 05:08 -4.42444 10.11042 7821 ft 156 kts 136°
2026-04-18 05:09 -4.43335 10.11675 7825 ft 156 kts 136°
2026-04-18 05:09 -4.44233 10.12312 7824 ft 156 kts 135°
2026-04-18 05:09 -4.45127 10.12946 7824 ft 157 kts 135°
2026-04-18 05:09 -4.46009 10.13573 7833 ft 156 kts 135°
2026-04-18 05:10 -4.46900 10.14206 7830 ft 156 kts 135°
2026-04-18 05:10 -4.47795 10.14843 7829 ft 156 kts 136°
2026-04-18 05:10 -4.48686 10.15476 7833 ft 156 kts 136°
2026-04-18 05:10 -4.49576 10.16107 7832 ft 156 kts 136°
2026-04-18 05:11 -4.50469 10.16741 7826 ft 156 kts 135°
2026-04-18 05:11 -4.51358 10.17373 7826 ft 156 kts 135°
2026-04-18 05:11 -4.52242 10.18003 7830 ft 156 kts 136°
2026-04-18 05:11 -4.53137 10.18637 7831 ft 157 kts 136°
2026-04-18 05:12 -4.54024 10.19267 7835 ft 156 kts 135°
2026-04-18 05:12 -4.54914 10.19899 7838 ft 156 kts 136°
2026-04-18 05:12 -4.55813 10.20538 7836 ft 156 kts 135°
2026-04-18 05:12 -4.56694 10.21166 7830 ft 156 kts 136°
2026-04-18 05:13 -4.57581 10.21795 7832 ft 156 kts 136°
2026-04-18 05:13 -4.58475 10.22430 7829 ft 156 kts 136°
2026-04-18 05:13 -4.59368 10.23065 7829 ft 156 kts 136°
2026-04-18 05:13 -4.60257 10.23697 7833 ft 156 kts 136°
2026-04-18 05:14 -4.61136 10.24320 7828 ft 157 kts 136°
2026-04-18 05:14 -4.62034 10.24960 7827 ft 157 kts 136°
2026-04-18 05:14 -4.62922 10.25591 7829 ft 157 kts 136°
2026-04-18 05:14 -4.63823 10.26229 7831 ft 156 kts 135°
2026-04-18 05:15 -4.64713 10.26863 7829 ft 156 kts 135°
2026-04-18 05:15 -4.65602 10.27495 7830 ft 156 kts 136°
2026-04-18 05:15 -4.66490 10.28127 7825 ft 156 kts 135°
2026-04-18 05:15 -4.67386 10.28763 7825 ft 156 kts 135°
2026-04-18 05:16 -4.68272 10.29394 7821 ft 156 kts 136°
2026-04-18 05:16 -4.69156 10.30024 7818 ft 156 kts 136°
2026-04-18 05:16 -4.70041 10.30652 7822 ft 156 kts 136°
2026-04-18 05:16 -4.70931 10.31284 7820 ft 156 kts 136°
2026-04-18 05:17 -4.71817 10.31914 7819 ft 156 kts 136°
2026-04-18 05:17 -4.72718 10.32554 7816 ft 157 kts 136°
2026-04-18 05:17 -4.73605 10.33184 7820 ft 156 kts 136°
2026-04-18 05:17 -4.74490 10.33814 7823 ft 156 kts 136°
2026-04-18 05:18 -4.75383 10.34448 7824 ft 156 kts 136°
2026-04-18 05:18 -4.76281 10.35086 7821 ft 157 kts 136°
2026-04-18 05:18 -4.77178 10.35726 7821 ft 157 kts 136°
2026-04-18 05:18 -4.78063 10.36353 7825 ft 156 kts 136°
2026-04-18 05:19 -4.78961 10.36992 7823 ft 156 kts 135°
2026-04-18 05:19 -4.79843 10.37619 7818 ft 156 kts 136°
2026-04-18 05:19 -4.80739 10.38257 7817 ft 156 kts 136°
2026-04-18 05:19 -4.81623 10.38887 7818 ft 156 kts 136°
2026-04-18 05:20 -4.82510 10.39518 7818 ft 156 kts 136°
2026-04-18 05:20 -4.83407 10.40156 7816 ft 156 kts 136°
2026-04-18 05:20 -4.84291 10.40783 7822 ft 156 kts 136°
2026-04-18 05:20 -4.85192 10.41424 7819 ft 157 kts 136°
2026-04-18 05:21 -4.86090 10.42062 7823 ft 156 kts 136°
2026-04-18 05:21 -4.86989 10.42703 7825 ft 157 kts 136°
2026-04-18 05:21 -4.87446 10.43027 7824 ft 157 kts 136°
2026-04-18 05:21 -4.88349 10.43671 7795 ft 157 kts 136°
2026-04-18 05:22 -4.89251 10.44313 7815 ft 157 kts 136°
2026-04-18 05:22 -4.90150 10.44951 7832 ft 156 kts 136°
2026-04-18 05:22 -4.91054 10.45593 7840 ft 156 kts 136°
2026-04-18 05:22 -4.91953 10.46232 7839 ft 157 kts 136°
2026-04-18 05:23 -4.92837 10.46862 7845 ft 156 kts 136°
2026-04-18 05:23 -4.93739 10.47504 7845 ft 156 kts 136°
2026-04-18 05:23 -4.94627 10.48138 7839 ft 156 kts 136°
2026-04-18 05:23 -4.95520 10.48773 7841 ft 156 kts 137°
2026-04-18 05:24 -4.96408 10.49405 7841 ft 156 kts 137°
2026-04-18 05:24 -4.97304 10.50042 7838 ft 156 kts 136°
2026-04-18 05:24 -4.98194 10.50676 7837 ft 156 kts 137°
2026-04-18 05:24 -4.99086 10.51310 7839 ft 157 kts 136°
2026-04-18 05:25 -4.99982 10.51947 7841 ft 157 kts 136°
2026-04-18 05:25 -5.00873 10.52580 7844 ft 156 kts 136°
2026-04-18 05:25 -5.01192 10.52808 7845 ft 156 kts 136°